Birmingham, AL

6:39 AM CST on January 23, 2018 (GMT -0600)
Birmingham International

Weather History for KBHM - December, 2013

Change the Weather History Date:

Friday, December 13, 2013

  Actual Average Record
Temperature  
Mean Temperature 39 °F 46 °F  
Max Temperature 50 °F 56 °F 79 °F (1931)
Min Temperature 27 °F 37 °F 1 °F (1962)
Degree Days  
Heating Degree Days 26 19  
Month to date heating degree days 207 226  
Since 1 July heating degree days 735 684  
Moisture  
Dew Point 21 °F    
Average Humidity 47    
Maximum Humidity 69    
Minimum Humidity 24    
Precipitation  
Precipitation 0.00 in 0.14 in 4.50 in (1920)
Month to date precipitation 3.75 2.06  
Year to date precipitation 64.56 51.33  
Snow  
Snow 0.00 in 0.00 in - ()
Month to date snowfall 0.0 0.0  
Since 1 July snowfall 0.0 0.0  
Snow Depth 0.00 in    
Sea Level Pressure  
Sea Level Pressure 30.27 in    
Wind  
Wind Speed 3 mph (ESE)    
Max Wind Speed 9 mph    
Max Gust Speed 13 mph    
Visibility 10 miles    
Events      
T = Trace of Precipitation, MM = Missing Value Source: NWS Daily Summary

Daily Weather History Graph

Daily Weather History Graph

Search for Another Location

Airport or City:

Trip Planner

Search our weather history database for the weather conditions in past years. The results will help you decide how hot, cold, wet, or windy it might be!

Date:

Astronomy

Dec. 13, 2013 Rise Set
Actual Time 6:42 AM CST 4:39 PM CST
Civil Twilight 6:15 AM CST 5:07 PM CST
Nautical Twilight 5:44 AM CST 5:38 PM CST
Astronomical Twilight 5:13 AM CST 6:08 PM CST
Moon 2:16 PM CST (12/13) 3:12 AM CST (12/13)
Length of Visible Light 10h 52m
Length of Day
9h 57m
Waxing Gibbous, 88% of the Moon is Illuminated
Dec 13
Waxing Gibbous
Dec 17
Full
Dec 25
Last Quarter
Jan 1
New
Jan 7
First Quarter

Hourly Weather History & Observations

Time (CST) Temp. Windchill Dew Point Humidity Pressure Visibility Wind Dir Wind Speed Gust Speed Precip Events Conditions
12:53 AM 30.0 °F - 19.0 °F 64% 30.41 in 10.0 mi Calm Calm - N/A   Partly Cloudy
1:53 AM 28.9 °F - 19.9 °F 69% 30.39 in 10.0 mi Calm Calm - N/A   Partly Cloudy
2:53 AM 28.9 °F - 19.9 °F 69% 30.38 in 10.0 mi Calm Calm - N/A   Clear
3:53 AM 28.0 °F - 18.0 °F 66% 30.37 in 10.0 mi Calm Calm - N/A   Clear
4:53 AM 34.0 °F 29.8 °F 17.1 °F 50% 30.35 in 10.0 mi ENE 4.6 mph - N/A   Partly Cloudy
5:53 AM 30.9 °F - 19.9 °F 64% 30.36 in 10.0 mi Calm Calm - N/A   Scattered Clouds
6:53 AM 30.9 °F - 19.0 °F 61% 30.37 in 10.0 mi Calm Calm - N/A   Mostly Cloudy
7:53 AM 33.1 °F - 21.0 °F 61% 30.36 in 10.0 mi Calm Calm - N/A   Mostly Cloudy
8:53 AM 41.0 °F 39.0 °F 18.0 °F 40% 30.37 in 10.0 mi ESE 3.5 mph - N/A   Mostly Cloudy
9:53 AM 43.0 °F 41.3 °F 19.0 °F 38% 30.37 in 10.0 mi NE 3.5 mph - N/A   Mostly Cloudy
10:53 AM 48.0 °F - 18.0 °F 30% 30.33 in 10.0 mi ESE 5.8 mph - N/A   Mostly Cloudy
11:53 AM 46.9 °F - 16.0 °F 29% 30.30 in 10.0 mi South 6.9 mph - N/A   Mostly Cloudy
12:53 PM 50.0 °F - 16.0 °F 26% 30.25 in 10.0 mi ESE 4.6 mph - N/A   Mostly Cloudy
1:53 PM 48.9 °F - 17.1 °F 28% 30.22 in 10.0 mi East 8.1 mph - N/A   Mostly Cloudy
2:53 PM 48.0 °F - 19.9 °F 33% 30.19 in 10.0 mi ESE 9.2 mph - N/A   Mostly Cloudy
3:53 PM 48.0 °F - 21.9 °F 36% 30.21 in 10.0 mi ESE 3.5 mph - N/A   Overcast
4:53 PM 46.9 °F - 23.0 °F 39% 30.21 in 10.0 mi ESE 4.6 mph - N/A   Overcast
5:53 PM 46.9 °F - 25.0 °F 42% 30.21 in 10.0 mi ESE 3.5 mph - N/A   Overcast
6:53 PM 46.9 °F - 23.0 °F 39% 30.17 in 10.0 mi Variable 4.6 mph - N/A   Overcast
7:53 PM 46.9 °F - 24.1 °F 41% 30.18 in 10.0 mi Calm Calm - N/A   Overcast
8:53 PM 48.0 °F - 23.0 °F 37% 30.16 in 10.0 mi SE 4.6 mph - N/A   Overcast
9:53 PM 46.9 °F - 25.0 °F 42% 30.15 in 10.0 mi Calm Calm - N/A   Overcast
10:53 PM 48.9 °F - 26.1 °F 41% 30.13 in 10.0 mi Calm Calm - N/A   Overcast
11:53 PM 48.9 °F - 27.0 °F 43% 30.11 in 10.0 mi Variable 3.5 mph - N/A   Overcast